EUTELSAT 21B

Last updated on Sun Jun 21 2026 00:03:05 GMT+0000 (Coordinated Universal Time)

1 38992U 12062B 26171.32496138 .00000125 00000+0 00000+0 0 9991 2 38992 0.0650 351.1649 0003048 87.9936 327.9799 1.00269086 49854
UTC large
Height (km)
Speed (km/s)
/
Latitude / Longitude
Inclination (degrees)
Orbital Period (minutes)
Azimuth
Elevation
Range (km)
Doppler Factor

Next 0 passes for location: London (51.5072 / 0.1276)

No passes found over London.
EUTELSAT 21B